Other Surface Observations
Issued by NWS Tucson, AZ

Home | Current Version | Previous Version | Text Only | Print | Product List | Glossary On
Versions: 1 2 3 4 5 6 7 8 9 10 11 12 13 14 15 16 17 18 19 20 21 22 23 24 25 26 27 28 29 30 31 32 33 34 35 36 37 38 39 40 41 42 43 44 45 46 47 48 49 50
744
SXUS55 KTWC 220015
OSOTWC

WEATHER ROUNDUP FOR SOUTHEAST ARIZONA
NATIONAL WEATHER SERVICE TUCSON AZ
515 PM MST TUE NOV 21 2017

AZZ504>506-514-220115-
LOCATION       SKY/WX    TMP DP  RH WIND       PRES   REMARKS
TUCSON         MOCLDY    74  24  15 N9        30.11R
DAVIS-MONTHAN  PTCLDY    72  23  16 NW9       30.08R
CHILDRENS PARK N/A      N/A N/A  15 NW6               PIMA CO DEQ
ALVERNON/22ND  N/A       75 N/A N/A NW5               PIMA CO DEQ
CHERRY/GLENN   N/A       76 N/A N/A W5                PIMA CO DEQ
TANGERINE      N/A       75 N/A N/A NW7               PIMA CO DEQ
CONTL RANCH    N/A       75  23  14 NW8               PIMA CO DEQ
GRANT/1ST      N/A       75  24  15 SW8               PIMA CO DEQ
CRAYCROFT/22ND N/A       75  23  14 NW7               PIMA CO DEQ
GOLFLINKS/KOLB N/A       75  23  14 NW6               PIMA CO DEQ
AJO/12TH       N/A       76  23  14 NW6               PIMA CO DEQ
FAIRGROUNDS    N/A       75 N/A N/A NW7               PIMA CO DEQ
SAGUARO        N/A       74  25  16 W3                *SABINO CYN
SAN CARLOS     N/A       78  17  10 S5                *SAN CARLOS
GREEN VALLEY   N/A       76  22  13 N7                PIMA CO DEQ
HORSE CAMP CYN N/A       77  18  11 SW5G10            *ARAVAIPA CYN
RINCON MTNS    N/A       56  17  21 NE3               *NR MANNING CAMP
$$

AZZ509>511-220115-
LOCATION       SKY/WX    TMP DP  RH WIND       PRES   REMARKS
SAFFORD        CLEAR     72  11   9 W10       30.07S
STRAY HORSE    N/A       61  22  22 NE4G15            *
TRAIL CABIN    N/A       68  23  18 NE4G12            *N OF GRANVILLE
BLACK HILLS    NOT AVBL
DRY LAKE       N/A       64  21  19 NW3G10            *NATANES MTNS
NOON CREEK     N/A       65  22  19 SW8G12            *PINALENO MTNS
COLUMBINE      N/A       57  16  20 E2                *PINALENO MTNS
GUTHRIE        N/A       66  19  16 N8G13             *SW OF GUTHRIE
$$

AZZ502-503-513-220115-
LOCATION       SKY/WX    TMP DP  RH WIND       PRES   REMARKS
NOGALES        PTCLDY    74  20  13 NW6       30.11R
SELLS          N/A       80  13   8 E7G12             *
SASABE         N/A       76  20  12 N8G14             *ALTAR VLY
HOPKINS        N/A       65  18  16 SE9G17            *SANTA RITA MTNS
CARR CYN       N/A       60  24  25 SW3               *W OF HEREFORD
$$

AZZ507-508-512-220115-
LOCATION       SKY/WX    TMP DP  RH WIND       PRES   REMARKS
SIERRA VISTA   PTCLDY    69  15  12 CALM      30.18R
DOUGLAS        CLEAR     70  14  11 N7        30.13R
EMPIRE MTNS    NOT AVBL
MULESHOE RANCH N/A       75  17  11 NW6G10            *PRESERVE
HEADQUARTERS   N/A       73  23  15 S2G10             *CHIRICAHUA MTNS
$$

.............................NOTES.............................
THIS IS AN AUTOMATED COLLECTIVE WITH MINIMAL QUALITY CONTROL.
PIMA CO DEQ SITES HAVE NONSTANDARD WIND SENSOR HEIGHTS.
PIMA CO DEQ SITES DO NOT REPORT WIND GUSTS.
* INDICATES WIND SENSORS LOCATED AT 20 FEET INSTEAD OF 33 FEET.
..............................KEY..............................
SKY/WX - SKY CONDITION/WEATHER
TMP    - TEMPERATURE IN FAHRENHEIT
DP     - DEWPOINT IN FAHRENHEIT
RH     - RELATIVE HUMIDITY IN PERCENT
WIND   - DIRECTION AND SPEED IN MILES PER HOUR (MPH)
VRB    - VARIABLE WIND DIRECTION
PRES   - MEAN SEA LEVEL PRESSURE IN INCHES OF MERCURY
         F - FALLING PRESSURE   R - RISING PRESSURE
         S - STEADY PRESSURE
VSB    - VISIBILITY IN MILES
HX     - HEAT INDEX IN FAHRENHEIT
WCI    - WIND CHILL INDEX IN FAHRENHEIT
N/A    - NOT AVAILABLE
AFB    - AIR FORCE BASE
         DAVIS-MONTHAN IS DAVIS-MONTHAN AIR FORCE BASE
CYN    - CANYON
MTNS   - MOUNTAINS
NCA    - NATIONAL CONSERVATION AREA
NR     - NEAR
VLY    - VALLEY
CONTL  - CONTINENTAL
PIMA CO DEQ - PIMA COUNTY DEPT OF ENVIRONMENTAL QUALITY



USA.gov is the U.S. government's official web portal to all federal, state and local government web resources and services.